#timestamp,LO_Frequency,Hit,StdDev 
1585490415.4,286046999.5,N
1585490435.2,286046999.4,N
1585490455.0,286046999.4,N
1585490455.9,286046999.4,N
1585490475.8,286046997.0,Y
1585490495.6,286046998.2,P
1585490515.5,286046998.1,P
1585490535.3,286047001.0,P
1585490555.1,286047000.5,N
1585490575.9,286047001.2,N
1585490595.7,286047000.5,N
1585490615.6,286046998.5,N
1585490635.4,286046998.1,N
1585490655.2,286046998.2,N
1585490675.1,286047000.0,N
1585490676.0,286047000.0,N
1585490695.8,286046999.8,N
1585490715.7,286046998.3,N
1585490735.5,286046999.1,N
1585490755.3,286046996.8,N
1585490775.2,286046997.4,N
1585490795.0,286046997.2,N
1585490795.9,286046997.2,N
1585490815.8,286046995.3,Y
1585490835.6,286046997.0,P
1585490855.4,286046996.6,P
1585490875.3,286046998.5,N
1585490895.1,286046998.1,N
1585490915.8,286046998.8,N
1585490935.7,286046998.3,N
1585490955.5,286047000.0,N
1585490975.4,286047000.4,N
1585490995.2,286047002.3,N
1585491015.0,286047002.0,N
1585491015.9,286047002.0,N
1585491035.8,286046999.7,N
1585491055.6,286047001.4,N
1585491075.4,286047002.5,N
1585491095.3,286047002.5,N
1585491115.1,286047002.6,N
1585491135.9,286047000.4,N
1585491155.7,286047004.2,N
1585491175.5,286047004.0,N
1585491195.4,286047004.3,N
1585491215.2,286047002.5,N
1585491235.1,286047002.8,N
1585491236.0,286047002.8,N
1585491255.8,286047002.3,N
1585491275.6,286047002.0,N
1585491295.5,286047003.1,N
1585491315.3,286047003.9,N
1585491335.1,286047001.6,N
1585491355.9,286047002.0,N
1585491375.7,286047005.3,N
1585491395.6,286047004.8,N
1585491415.4,286047002.9,N
1585491435.2,286047003.0,N
1585491455.1,286047005.9,Y
1585491456.0,286047005.9,P
1585491475.8,286047004.1,N
1585491495.7,286047001.6,N
1585491515.5,286047003.9,N
1585491535.3,286047003.7,N
1585491555.2,286047003.5,N
1585491575.0,286047004.2,Y
1585491575.9,286047004.2,P
1585491595.8,286046998.5,P
1585491615.6,286046998.1,N
1585491635.4,286047000.4,N
1585491655.3,286046998.5,N
1585491675.1,286047000.0,N
1585491695.8,286047001.2,N
1585491715.7,286047000.5,N
1585491735.5,286046998.3,N
1585491755.4,286047001.2,N
1585491775.2,286047000.0,N
1585491795.0,286047000.1,N
1585491795.9,286047000.1,N
1585491815.8,286047000.4,N
1585491835.6,286046999.4,N
1585491855.5,286047001.2,N
1585491875.3,286047001.1,N
1585491895.1,286047000.2,N
1585491915.9,286047001.9,N
1585491935.7,286047004.3,N
1585491955.5,286047001.7,N
1585491975.4,286047005.2,Y
1585491995.2,286047005.5,P
1585492015.1,286047001.9,N
1585492016.0,286047001.9,N
1585492035.8,286046999.7,N
1585492055.6,286047004.3,N
1585492075.5,286047003.7,N
1585492095.3,286047001.5,N
1585492115.2,286047002.3,N
1585492135.9,286047002.7,N
1585492155.7,286047002.3,N
1585492175.6,286047004.4,N
1585492195.4,286047002.3,N
1585492215.2,286047001.5,N
1585492235.1,286047003.1,N
1585492236.0,286047003.1,N
1585492255.8,286047004.2,N
1585492275.7,286047001.4,N
1585492295.5,286046999.8,N
1585492315.3,286047001.7,N
1585492335.2,286047002.0,N
1585492355.0,286047002.1,N
1585492355.9,286047002.1,N
1585492375.8,286047001.0,N
1585492395.6,286047002.7,N
1585492415.4,286046999.8,N
1585492435.3,286047000.0,N
1585492455.1,286047000.6,N
1585492475.8,286047000.4,N
1585492495.7,286047002.6,N
1585492515.5,286047002.2,N
1585492535.4,286047003.9,N
1585492555.2,286047005.6,Y
1585492575.0,286047001.1,P
1585492575.9,286047001.1,N
1585492595.8,286047000.7,N
1585492615.6,286047002.1,Y
1585492635.5,286047000.8,P
1585492655.3,286046999.0,P
1585492675.1,286047000.1,N
1585492695.9,286046999.8,N
1585492715.7,286047002.8,Y
1585492735.6,286047002.2,P
1585492755.4,286047002.8,N
1585492775.2,286047001.6,N
1585492795.1,286047001.9,N
1585492796.0,286047001.9,N
1585492815.8,286047001.7,N
1585492835.7,286047002.0,N
1585492855.5,286047002.8,Y
1585492875.3,286047001.1,P
1585492895.2,286047001.2,P
1585492915.0,286046998.8,P
1585492915.9,286046998.8,N
1585492935.8,286046998.5,N
1585492955.6,286046998.8,N
1585492975.4,286047000.4,N
1585492995.3,286047001.1,N
1585493015.1,286046999.4,N
1585493035.9,286047001.0,N
1585493055.7,286047001.2,N
1585493075.5,286047000.9,N
1585493095.4,286046999.7,N
1585493115.2,286047000.7,N
1585493135.0,286047000.4,N
1585493136.0,286047000.4,N
1585493155.8,286047000.6,N
1585493175.6,286046999.7,N
1585493195.5,286047000.0,N
1585493215.3,286047000.3,N
1585493235.2,286046999.9,N
1585493255.9,286046998.1,N
1585493275.7,286047000.9,N
1585493295.6,286047000.1,N
1585493315.4,286047004.1,Y
1585493335.3,286047005.2,P
1585493355.1,286047003.7,N
1585493356.0,286047003.7,N
1585493375.8,286047003.0,N
1585493395.7,286047002.1,N
1585493415.5,286047004.4,N
1585493435.4,286047005.3,Y
1585493455.2,286047001.7,P
1585493475.0,286047001.5,N
1585493475.9,286047001.5,N
1585493495.8,286047002.7,Y
1585493515.6,286046998.2,P
1585493535.4,286047004.6,N
1585493555.3,286047007.3,N
1585493575.1,286046999.8,N
1585493595.9,286046997.4,N
1585493615.7,286046991.9,N
1585493635.5,286046990.8,N
1585493655.4,286046987.0,N
1585493675.2,286046985.7,N
1585493695.1,286046983.8,N
1585493696.0,286046983.8,N
1585493715.8,286046984.7,N
1585493735.6,286046984.3,N
1585493755.5,286046982.3,N
1585493775.3,286046982.8,N
1585493795.2,286046983.4,N
1585493815.9,286046983.0,N
1585493835.7,286046981.8,N
1585493855.6,286046979.5,N
1585493875.4,286046975.8,N
1585493895.2,286046976.5,N
1585493915.1,286046976.6,N
1585493916.0,286046976.6,N
1585493935.8,286046976.4,N
1585493955.7,286046977.0,N
1585493975.5,286046975.8,N
1585493995.3,286046976.6,N
